Retour au catalogue

COSMOS 2474

GLONASS

ActifNavigationMEO
NORAD 37829·PAYLOAD·🇷🇺 Russia

Lancé Oct 2, 2011 depuis Plesetsk Cosmodrome

Loading…

Prochains Passages (prochaines 24 heures)

TLE

FraisSource: Space-Track

Époque: Sep 9, 2026, 00:43 UTC

1 37829U 11055A   26252.03029118  .00000031  00000-0  00000-0 0  9996
2 37829  65.3421  70.0577 0009937 236.0089 120.7313  2.13101126116231

Suivez COSMOS 2474 en temps réel avec AllMySat

Download on the App Store